Douglas, WY

9:47 AM MST on February 27, 2017 (GMT -0700)
Converse County

Weather History for KDGW - July, 2012

Change the Weather History Date:

Wednesday, July 25, 2012

  Actual Average Record
Temperature  
Mean Temperature 71 °F 72 °F  
Max Temperature 86 °F 89 °F 101 °F (2003)
Min Temperature 55 °F 55 °F 50 °F (2004)
Cooling Degree Days 6 8  
Month to date cooling degree days 309 159  
Year to date cooling degree days 516 236  
Since 1 June cooling degree days 497 230  
Growing Degree Days 22 (Base 50)    
Moisture  
Dew Point 52 °F    
Average Humidity 59    
Maximum Humidity 90    
Minimum Humidity 27    
Precipitation  
Precipitation 0.06 in 0.04 in 0.74 in (2005)
Month to date precipitation 0.26 1.14  
Year to date precipitation 3.57 8.69  
Sea Level Pressure  
Sea Level Pressure 29.91 in    
Wind  
Wind Speed 9 mph (NW)    
Max Wind Speed 25 mph    
Max Gust Speed 35 mph    
Visibility 10 miles    
Events Rain , Thunderstorm    
T = Trace of Precipitation, MM = Missing Value Source: NWS Daily Summary

Daily Weather History Graph

Daily Weather History Graph

Search for Another Location

Airport or City:

Trip Planner

Search our weather history database for the weather conditions in past years. The results will help you decide how hot, cold, wet, or windy it might be!

Date:

Astronomy

Jul. 25, 2012 Rise Set
Actual Time 5:46 AM MDT 8:29 PM MDT
Civil Twilight 5:13 AM MDT 9:01 PM MDT
Nautical Twilight 4:32 AM MDT 9:42 PM MDT
Astronomical Twilight 3:44 AM MDT 10:30 PM MDT
Moon 1:06 PM MDT (7/25) 11:43 PM MDT (7/25)
Length of Visible Light 15h 48m
Length of Day
14h 42m
Waxing Crescent, 43% of the Moon is Illuminated
Jul 25
Waxing Crescent
Jul 26
First Quarter
Aug 1
Full
Aug 9
Last Quarter
Aug 17
New

Hourly Weather History & Observations

Time (MDT) Temp. Heat Index Dew Point Humidity Pressure Visibility Wind Dir Wind Speed Gust Speed Precip Events Conditions
12:53 AM 66.0 °F - 55.0 °F 68% 29.79 in 10.0 mi WNW 4.6 mph - N/A   Clear
1:53 AM 64.0 °F - 54.0 °F 70% 29.81 in 10.0 mi West 3.5 mph - N/A   Clear
2:53 AM 61.0 °F - 53.1 °F 75% 29.82 in 10.0 mi ESE 8.1 mph - N/A   Clear
3:53 AM 63.0 °F - 54.0 °F 72% 29.82 in 10.0 mi East 3.5 mph - N/A   Overcast
4:53 AM 61.0 °F - 53.1 °F 75% 29.82 in 10.0 mi Calm Calm - N/A   Partly Cloudy
6:53 AM 64.9 °F - 55.0 °F 70% 29.86 in 10.0 mi ESE 3.5 mph - N/A   Partly Cloudy
7:53 AM 72.0 °F - 53.1 °F 51% 29.85 in 10.0 mi WNW 5.8 mph - N/A   Mostly Cloudy
8:53 AM 72.0 °F - 53.1 °F 51% 29.86 in 10.0 mi NW 9.2 mph - N/A   Overcast
9:53 AM 79.0 °F - 53.1 °F 40% 29.86 in 10.0 mi WNW 17.3 mph 21.9 mph N/A   Mostly Cloudy
10:53 AM 80.1 °F - 51.1 °F 36% 29.87 in 10.0 mi NNW 13.8 mph - N/A   Scattered Clouds
11:53 AM 79.0 °F - 48.0 °F 34% 29.88 in 10.0 mi North 13.8 mph - N/A   Mostly Cloudy
12:53 PM 82.0 °F - 48.0 °F 30% 29.87 in 10.0 mi North 13.8 mph 19.6 mph N/A   Mostly Cloudy
1:53 PM 82.0 °F - 48.0 °F 30% 29.87 in 10.0 mi NW 17.3 mph 28.8 mph N/A   Mostly Cloudy
2:09 PM 84.2 °F - 48.2 °F 29% 30.06 in 10.0 mi NW 11.5 mph - N/A Thunderstorm Mostly Cloudy
2:24 PM 84.2 °F - 46.4 °F 27% 30.06 in 10.0 mi NNE 5.8 mph 17.3 mph N/A   Partly Cloudy
2:53 PM 84.9 °F - 46.9 °F 27% 29.87 in 10.0 mi NNE 5.8 mph - N/A   Scattered Clouds
3:53 PM 80.1 °F 79.9 °F 53.1 °F 39% 29.88 in 10.0 mi SSE 18.4 mph - N/A   Mostly Cloudy
4:53 PM 80.1 °F - 52.0 °F 38% 29.88 in 10.0 mi SE 18.4 mph 25.3 mph N/A   Clear
5:53 PM 75.9 °F - 52.0 °F 43% 29.90 in 10.0 mi SSE 23.0 mph 29.9 mph N/A   Clear
6:48 PM 73.4 °F - 48.2 °F 41% 30.07 in 10.0 mi South 10.4 mph - N/A Thunderstorm Partly Cloudy
6:53 PM 73.0 °F - 48.9 °F 42% 29.93 in 10.0 mi SSW 16.1 mph 26.5 mph N/A Thunderstorm Scattered Clouds
7:09 PM 62.6 °F - 55.4 °F 77% 30.10 in 10.0 mi NNW 12.7 mph 33.4 mph 0.02 in Rain , Thunderstorm Thunderstorms and Rain
7:41 PM 62.6 °F - 57.2 °F 82% 30.09 in 10.0 mi WNW 5.8 mph - 0.06 in Rain Light Rain
7:53 PM 64.0 °F - 57.9 °F 80% 29.94 in 10.0 mi WSW 3.5 mph - 0.06 in   Mostly Cloudy
8:53 PM 63.0 °F - 57.0 °F 81% 29.92 in 10.0 mi NE 6.9 mph - N/A   Clear
9:53 PM 61.0 °F - 57.0 °F 87% 29.93 in 10.0 mi SSW 5.8 mph - N/A   Clear
10:53 PM 61.0 °F - 55.9 °F 83% 29.94 in 10.0 mi SSE 6.9 mph - N/A   Clear
11:53 PM 59.0 °F - 55.0 °F 87% 29.95 in 10.0 mi Calm Calm - N/A   Clear